| time (UTC) | temp F | wind direction | speed MPH | gust MPH | rain 1hr in | rain 24hr in | rain mn in | humidity % | barometer mb |
| 20260904194910 | 90 | 136 | 0.0 | 0.0 | 0.00 | 0.00 | 0.00 | 26 | 1015.2 |
| 20260904193906 | 89 | 128 | 1.0 | 7.0 | 0.00 | 0.00 | 0.00 | 26 | 1015.3 |
| 20260904193407 | 89 | 84 | 0.0 | 7.0 | 0.00 | 0.00 | 0.00 | 24 | 1015.3 |
| 20260904192906 | 89 | 199 | 0.0 | 1.0 | 0.00 | 0.00 | 0.00 | 26 | 1015.3 |
| 20260904192408 | 89 | 173 | 0.0 | 0.0 | 0.00 | 0.00 | 0.00 | 27 | 1015.4 |
| 20260904191907 | 88 | 145 | 0.0 | 0.0 | 0.00 | 0.00 | 0.00 | 27 | 1015.5 |
| 20260904191407 | 88 | 113 | 0.0 | 0.0 | 0.00 | 0.00 | 0.00 | 27 | 1015.4 |
| 20260904190902 | 88 | 113 | 0.0 | 0.0 | 0.00 | 0.00 | 0.00 | 26 | 1015.5 |
| 20260904190403 | 88 | 102 | 0.0 | 0.0 | 0.00 | 0.00 | 0.00 | 26 | 1015.5 |
| 20260904185402 | 87 | 98 | 0.0 | 0.0 | 0.00 | 0.00 | 0.00 | 24 | 1015.7 |
| 20260904184903 | 87 | 187 | 0.0 | 0.0 | 0.00 | 0.00 | 0.00 | 24 | 1015.8 |
| 20260904184403 | 87 | 187 | 0.0 | 0.0 | 0.00 | 0.00 | 0.00 | 25 | 1015.8 |
| 20260904183903 | 87 | 187 | 0.0 | 0.0 | 0.00 | 0.00 | 0.00 | 26 | 1015.9 |
| 20260904183402 | 87 | 187 | 0.0 | 0.0 | 0.00 | 0.00 | 0.00 | 24 | 1015.9 |
| 20260904182902 | 87 | 191 | 0.0 | 0.0 | 0.00 | 0.00 | 0.00 | 26 | 1015.9 |
| 20260904182403 | 86 | 238 | 0.0 | 0.0 | 0.00 | 0.00 | 0.00 | 26 | 1016.0 |
| 20260904181904 | 86 | 239 | 0.0 | 0.0 | 0.00 | 0.00 | 0.00 | 27 | 1015.9 |
| 20260904180903 | 86 | 240 | 0.0 | 0.0 | 0.00 | 0.00 | 0.00 | 27 | 1016.1 |
| 20260904180405 | 85 | 240 | 0.0 | 0.0 | 0.00 | 0.00 | 0.00 | 27 | 1016.2 |
| 20260904175402 | 85 | 240 | 0.0 | 0.0 | 0.00 | 0.00 | 0.00 | 28 | 1016.2 |
| 20260904174902 | 85 | 240 | 0.0 | 0.0 | 0.00 | 0.00 | 0.00 | 28 | 1016.4 |
| 20260904174403 | 85 | 240 | 0.0 | 0.0 | 0.00 | 0.00 | 0.00 | 28 | 1016.2 |
| 20260904173903 | 84 | 246 | 0.0 | 0.0 | 0.00 | 0.00 | 0.00 | 29 | 1016.2 |
| 20260904173403 | 84 | 246 | 0.0 | 0.0 | 0.00 | 0.00 | 0.00 | 29 | 1016.4 |
| 20260904172902 | 84 | 246 | 0.0 | 0.0 | 0.00 | 0.00 | 0.00 | 31 | 1016.4 |
| 20260904172402 | 83 | 246 | 0.0 | 0.0 | 0.00 | 0.00 | 0.00 | 32 | 1016.4 |
| 20260904171901 | 83 | 246 | 0.0 | 0.0 | 0.00 | 0.00 | 0.00 | 31 | 1016.4 |
| 20260904171359 | 83 | 246 | 0.0 | 0.0 | 0.00 | 0.00 | 0.00 | 29 | 1016.4 |
| 20260904170856 | 83 | 246 | 0.0 | 0.0 | 0.00 | 0.00 | 0.00 | 31 | 1016.4 |
| 20260904170355 | 82 | 246 | 0.0 | 0.0 | 0.00 | 0.00 | 0.00 | 33 | 1016.5 |
| 20260904165852 | 82 | 246 | 0.0 | 0.0 | 0.00 | 0.00 | 0.00 | 34 | 1016.5 |
| 20260904165353 | 82 | 246 | 0.0 | 0.0 | 0.00 | 0.00 | 0.00 | 35 | 1016.5 |
| 20260904164852 | 81 | 246 | 0.0 | 0.0 | 0.00 | 0.00 | 0.00 | 36 | 1016.5 |
| 20260904164350 | 81 | 246 | 0.0 | 0.0 | 0.00 | 0.00 | 0.00 | 36 | 1016.6 |
| 20260904163848 | 80 | 246 | 0.0 | 0.0 | 0.00 | 0.00 | 0.00 | 35 | 1016.5 |
| 20260904163349 | 80 | 245 | 0.0 | 0.0 | 0.00 | 0.00 | 0.00 | 37 | 1016.5 |
| 20260904162346 | 78 | 246 | 0.0 | 1.0 | 0.00 | 0.00 | 0.00 | 38 | 1016.5 |
| 20260904161844 | 78 | 247 | 0.0 | 1.0 | 0.00 | 0.00 | 0.00 | 39 | 1016.5 |
| 20260904160326 | 76 | 248 | 0.0 | 0.0 | 0.00 | 0.00 | 0.00 | 39 | 1016.6 |
| 20260904155819 | 76 | 246 | 0.0 | 0.0 | 0.00 | 0.00 | 0.00 | 41 | 1016.6 |
| 20260904155314 | 76 | 250 | 0.0 | 0.0 | 0.00 | 0.00 | 0.00 | 40 | 1016.5 |
| 20260904154808 | 75 | 253 | 0.0 | 0.0 | 0.00 | 0.00 | 0.00 | 42 | 1016.5 |
| 20260904154303 | 75 | 263 | 0.0 | 6.0 | 0.00 | 0.00 | 0.00 | 42 | 1016.5 |
| 20260904153756 | 74 | 263 | 0.0 | 6.0 | 0.00 | 0.00 | 0.00 | 40 | 1016.5 |
| 20260904153249 | 74 | 234 | 0.0 | 0.0 | 0.00 | 0.00 | 0.00 | 39 | 1016.5 |
| 20260904152743 | 74 | 252 | 0.0 | 0.0 | 0.00 | 0.00 | 0.00 | 41 | 1016.6 |
| 20260904152239 | 73 | 252 | 0.0 | 1.0 | 0.00 | 0.00 | 0.00 | 44 | 1016.6 |
| 20260904151732 | 73 | 254 | 2.0 | 8.0 | 0.00 | 0.00 | 0.00 | 41 | 1016.6 |
| 20260904150720 | 71 | 254 | 0.0 | 0.0 | 0.00 | 0.00 | 0.00 | 42 | 1016.6 |
| 20260904150214 | 71 | 262 | 0.0 | 0.0 | 0.00 | 0.00 | 0.00 | 44 | 1016.5 |
| 20260904143644 | 67 | 234 | 0.0 | 0.0 | 0.00 | 0.00 | 0.00 | 55 | 1016.4 |
| 20260904143138 | 66 | 234 | 0.0 | 0.0 | 0.00 | 0.00 | 0.00 | 57 | 1016.5 |
| 20260904142632 | 65 | 233 | 0.0 | 0.0 | 0.00 | 0.00 | 0.00 | 59 | 1016.4 |
| 20260904142125 | 64 | 226 | 0.0 | 0.0 | 0.00 | 0.00 | 0.00 | 60 | 1016.2 |
| 20260904141620 | 64 | 226 | 0.0 | 0.0 | 0.00 | 0.00 | 0.00 | 60 | 1016.2 |
| 20260904141115 | 63 | 226 | 0.0 | 0.0 | 0.00 | 0.00 | 0.00 | 61 | 1016.2 |
| 20260904140609 | 62 | 226 | 0.0 | 0.0 | 0.00 | 0.00 | 0.00 | 62 | 1016.1 |
| 20260904135555 | 61 | 226 | 0.0 | 0.0 | 0.00 | 0.00 | 0.00 | 63 | 1016.0 |
| 20260904135049 | 60 | 226 | 0.0 | 0.0 | 0.00 | 0.00 | 0.00 | 64 | 1016.0 |
| 20260904134039 | 60 | 226 | 0.0 | 0.0 | 0.00 | 0.00 | 0.00 | 63 | 1015.9 |
| 20260904133533 | 59 | 226 | 0.0 | 0.0 | 0.00 | 0.00 | 0.00 | 63 | 1015.9 |
| 20260904133027 | 59 | 226 | 0.0 | 0.0 | 0.00 | 0.00 | 0.00 | 63 | 1015.8 |
| 20260904132519 | 59 | 226 | 0.0 | 0.0 | 0.00 | 0.00 | 0.00 | 63 | 1015.8 |
| 20260904132014 | 59 | 226 | 0.0 | 0.0 | 0.00 | 0.00 | 0.00 | 64 | 1015.7 |
| 20260904131001 | 59 | 226 | 0.0 | 0.0 | 0.00 | 0.00 | 0.00 | 64 | 1015.7 |
| 20260904130455 | 59 | 226 | 0.0 | 0.0 | 0.00 | 0.00 | 0.00 | 64 | 1015.7 |
| 20260904125444 | 59 | 226 | 0.0 | 0.0 | 0.00 | 0.00 | 0.00 | 64 | 1015.4 |
| 20260904124937 | 59 | 226 | 0.0 | 0.0 | 0.00 | 0.00 | 0.00 | 64 | 1015.3 |
| 20260904124432 | 59 | 226 | 0.0 | 0.0 | 0.00 | 0.00 | 0.00 | 64 | 1015.3 |
| 20260904123927 | 59 | 226 | 0.0 | 0.0 | 0.00 | 0.00 | 0.00 | 63 | 1015.3 |
| 20260904123421 | 59 | 226 | 0.0 | 0.0 | 0.00 | 0.00 | 0.00 | 63 | 1015.2 |
| 20260904121356 | 60 | 226 | 0.0 | 0.0 | 0.00 | 0.00 | 0.00 | 63 | 1015.0 |
| 20260904120856 | 60 | 226 | 0.0 | 0.0 | 0.00 | 0.00 | 0.00 | 63 | 1015.0 |
| 20260904120355 | 60 | 226 | 0.0 | 0.0 | 0.00 | 0.00 | 0.00 | 63 | 1015.0 |
| 20260904115856 | 60 | 226 | 0.0 | 0.0 | 0.00 | 0.00 | 0.00 | 63 | 1015.0 |
| 20260904115357 | 60 | 226 | 0.0 | 0.0 | 0.00 | 0.00 | 0.00 | 63 | 1015.0 |
| 20260904114855 | 60 | 226 | 0.0 | 0.0 | 0.00 | 0.00 | 0.00 | 63 | 1015.0 |
| 20260904114354 | 60 | 226 | 0.0 | 0.0 | 0.00 | 0.00 | 0.00 | 63 | 1015.0 |
| 20260904113852 | 60 | 225 | 0.0 | 0.0 | 0.00 | 0.00 | 0.00 | 63 | 1014.7 |
| 20260904112850 | 60 | 222 | 0.0 | 0.0 | 0.00 | 0.00 | 0.00 | 62 | 1014.5 |
| 20260904112350 | 60 | 222 | 0.0 | 0.0 | 0.00 | 0.00 | 0.00 | 62 | 1014.5 |
| 20260904111850 | 60 | 222 | 0.0 | 0.0 | 0.00 | 0.00 | 0.00 | 62 | 1014.5 |
| 20260904111349 | 60 | 222 | 0.0 | 0.0 | 0.00 | 0.00 | 0.00 | 61 | 1014.5 |
| 20260904110850 | 61 | 222 | 0.0 | 0.0 | 0.00 | 0.00 | 0.00 | 61 | 1014.4 |
| 20260904110351 | 61 | 222 | 0.0 | 0.0 | 0.00 | 0.00 | 0.00 | 60 | 1014.4 |
| 20260904105850 | 61 | 222 | 0.0 | 0.0 | 0.00 | 0.00 | 0.00 | 60 | 1014.4 |
| 20260904105345 | 61 | 222 | 0.0 | 0.0 | 0.00 | 0.00 | 0.00 | 60 | 1014.5 |
| 20260904104845 | 61 | 222 | 0.0 | 0.0 | 0.00 | 0.00 | 0.00 | 60 | 1014.5 |
| 20260904104343 | 62 | 222 | 0.0 | 0.0 | 0.00 | 0.00 | 0.00 | 60 | 1014.4 |
| 20260904103845 | 62 | 222 | 0.0 | 0.0 | 0.00 | 0.00 | 0.00 | 60 | 1014.3 |
| 20260904103344 | 62 | 222 | 0.0 | 0.0 | 0.00 | 0.00 | 0.00 | 59 | 1014.3 |
| 20260904102846 | 62 | 222 | 0.0 | 0.0 | 0.00 | 0.00 | 0.00 | 59 | 1014.0 |
| 20260904102342 | 62 | 222 | 0.0 | 0.0 | 0.00 | 0.00 | 0.00 | 59 | 1014.0 |
| 20260904101844 | 63 | 222 | 0.0 | 0.0 | 0.00 | 0.00 | 0.00 | 59 | 1014.0 |
| 20260904101342 | 63 | 222 | 0.0 | 0.0 | 0.00 | 0.00 | 0.00 | 59 | 1013.9 |
| 20260904095845 | 64 | 222 | 0.0 | 0.0 | 0.00 | 0.00 | 0.00 | 58 | 1013.8 |
| 20260904095341 | 64 | 222 | 0.0 | 0.0 | 0.00 | 0.00 | 0.00 | 56 | 1013.7 |
| 20260904094845 | 64 | 222 | 0.0 | 0.0 | 0.00 | 0.00 | 0.00 | 56 | 1013.7 |
| 20260904094341 | 64 | 222 | 0.0 | 0.0 | 0.00 | 0.00 | 0.00 | 55 | 1013.8 |
| 20260904093842 | 64 | 222 | 0.0 | 0.0 | 0.00 | 0.00 | 0.00 | 55 | 1013.8 |
| 20260904093342 | 64 | 222 | 0.0 | 0.0 | 0.00 | 0.00 | 0.00 | 55 | 1013.8 |
| 20260904092843 | 64 | 222 | 0.0 | 0.0 | 0.00 | 0.00 | 0.00 | 55 | 1013.7 |
| 20260904092341 | 65 | 222 | 0.0 | 0.0 | 0.00 | 0.00 | 0.00 | 54 | 1013.6 |
| 20260904091844 | 65 | 222 | 0.0 | 0.0 | 0.00 | 0.00 | 0.00 | 53 | 1013.6 |
| 20260904091342 | 65 | 222 | 0.0 | 0.0 | 0.00 | 0.00 | 0.00 | 53 | 1013.6 |
| 20260904090844 | 65 | 222 | 0.0 | 0.0 | 0.00 | 0.00 | 0.00 | 53 | 1013.6 |
| 20260904090341 | 65 | 222 | 0.0 | 0.0 | 0.00 | 0.00 | 0.00 | 53 | 1013.4 |
| 20260904085843 | 65 | 221 | 0.0 | 0.0 | 0.00 | 0.00 | 0.00 | 52 | 1013.4 |
| 20260904085342 | 65 | 221 | 0.0 | 0.0 | 0.00 | 0.00 | 0.00 | 51 | 1013.4 |
| 20260904084843 | 65 | 221 | 0.0 | 0.0 | 0.00 | 0.00 | 0.00 | 52 | 1013.4 |
| 20260904084342 | 65 | 221 | 0.0 | 0.0 | 0.00 | 0.00 | 0.00 | 51 | 1013.4 |
| 20260904083843 | 65 | 221 | 0.0 | 0.0 | 0.00 | 0.00 | 0.00 | 51 | 1013.3 |
| 20260904083339 | 65 | 221 | 0.0 | 0.0 | 0.00 | 0.00 | 0.00 | 51 | 1013.3 |
| 20260904082333 | 65 | 221 | 0.0 | 0.0 | 0.00 | 0.00 | 0.00 | 52 | 1013.2 |
| 20260904081321 | 66 | 221 | 0.0 | 0.0 | 0.00 | 0.00 | 0.00 | 52 | 1013.2 |
| 20260904080816 | 66 | 221 | 0.0 | 0.0 | 0.00 | 0.00 | 0.00 | 51 | 1013.2 |
| 20260904080311 | 66 | 221 | 0.0 | 0.0 | 0.00 | 0.00 | 0.00 | 50 | 1013.2 |
| 20260904075804 | 66 | 221 | 0.0 | 0.0 | 0.00 | 0.00 | 0.00 | 50 | 1013.3 |
| 20260904075256 | 67 | 221 | 0.0 | 0.0 | 0.00 | 0.00 | 0.00 | 50 | 1013.4 |
| 20260904074750 | 67 | 221 | 0.0 | 0.0 | 0.00 | 0.00 | 0.00 | 50 | 1013.4 |
| 20260904074246 | 67 | 221 | 0.0 | 0.0 | 0.00 | 0.00 | 0.00 | 49 | 1013.4 |
| 20260904073739 | 67 | 221 | 0.0 | 0.0 | 0.00 | 0.00 | 0.00 | 49 | 1013.4 |
| 20260904073233 | 67 | 221 | 0.0 | 0.0 | 0.00 | 0.00 | 0.00 | 48 | 1013.4 |
| 20260904072727 | 67 | 221 | 0.0 | 0.0 | 0.00 | 0.00 | 0.00 | 48 | 1013.4 |
| 20260904072220 | 68 | 221 | 0.0 | 0.0 | 0.00 | 0.00 | 0.00 | 48 | 1013.4 |
| 20260904071715 | 68 | 221 | 0.0 | 0.0 | 0.00 | 0.00 | 0.00 | 48 | 1013.6 |
| 20260904071208 | 68 | 221 | 0.0 | 0.0 | 0.00 | 0.00 | 0.00 | 47 | 1013.4 |
| 20260904070703 | 68 | 221 | 0.0 | 0.0 | 0.00 | 0.00 | 0.00 | 47 | 1013.4 |
| 20260904070203 | 69 | 221 | 0.0 | 0.0 | 0.00 | 0.00 | 0.00 | 47 | 1013.6 |
| 20260904065703 | 69 | 221 | 0.0 | 0.0 | 0.00 | 0.00 | 0.00 | 46 | 1013.6 |
| 20260904065203 | 69 | 221 | 0.0 | 0.0 | 0.00 | 0.00 | 0.00 | 46 | 1013.7 |
| 20260904064703 | 69 | 221 | 0.0 | 0.0 | 0.00 | 0.00 | 0.00 | 45 | 1013.7 |
| 20260904064204 | 69 | 221 | 0.0 | 0.0 | 0.00 | 0.00 | 0.00 | 44 | 1013.8 |
| 20260904063703 | 69 | 221 | 0.0 | 0.0 | 0.00 | 0.00 | 0.00 | 44 | 1013.7 |
| 20260904063201 | 70 | 221 | 0.0 | 0.0 | 0.00 | 0.00 | 0.00 | 44 | 1013.8 |
| 20260904061659 | 70 | 221 | 0.0 | 0.0 | 0.00 | 0.00 | 0.00 | 43 | 1013.7 |
| 20260904061159 | 70 | 221 | 0.0 | 0.0 | 0.00 | 0.00 | 0.00 | 43 | 1013.7 |
| 20260904060658 | 71 | 221 | 0.0 | 0.0 | 0.00 | 0.00 | 0.00 | 42 | 1013.7 |
| 20260904060157 | 71 | 221 | 0.0 | 0.0 | 0.00 | 0.00 | 0.00 | 42 | 1013.7 |
| 20260904055659 | 71 | 221 | 0.0 | 0.0 | 0.00 | 0.00 | 0.00 | 42 | 1013.7 |
| 20260904055155 | 71 | 221 | 0.0 | 0.0 | 0.00 | 0.00 | 0.00 | 42 | 1013.7 |
| 20260904053653 | 70 | 221 | 0.0 | 0.0 | 0.00 | 0.00 | 0.00 | 43 | 1013.7 |
| 20260904053154 | 70 | 220 | 0.0 | 0.0 | 0.00 | 0.00 | 0.00 | 43 | 1013.6 |
| 20260904052654 | 70 | 220 | 0.0 | 0.0 | 0.00 | 0.00 | 0.00 | 43 | 1013.6 |
| 20260904052153 | 70 | 220 | 0.0 | 0.0 | 0.00 | 0.00 | 0.00 | 42 | 1013.4 |
| 20260904051651 | 70 | 220 | 0.0 | 0.0 | 0.00 | 0.00 | 0.00 | 43 | 1013.6 |
| 20260904050652 | 71 | 220 | 0.0 | 0.0 | 0.00 | 0.00 | 0.00 | 41 | 1013.6 |
| 20260904050152 | 71 | 220 | 0.0 | 0.0 | 0.00 | 0.00 | 0.00 | 41 | 1013.6 |
| 20260904045651 | 71 | 220 | 0.0 | 0.0 | 0.00 | 0.00 | 0.00 | 42 | 1013.6 |
| 20260904045152 | 72 | 257 | 0.0 | 0.0 | 0.00 | 0.00 | 0.00 | 41 | 1013.4 |
| 20260904044648 | 72 | 257 | 0.0 | 0.0 | 0.00 | 0.00 | 0.00 | 41 | 1013.2 |
| 20260904044148 | 72 | 257 | 0.0 | 0.0 | 0.00 | 0.00 | 0.00 | 40 | 1013.2 |
| 20260904043647 | 73 | 257 | 0.0 | 0.0 | 0.00 | 0.00 | 0.00 | 39 | 1013.1 |
| 20260904043147 | 73 | 257 | 0.0 | 0.0 | 0.00 | 0.00 | 0.00 | 39 | 1013.1 |
| 20260904042648 | 73 | 257 | 0.0 | 0.0 | 0.00 | 0.00 | 0.00 | 38 | 1013.0 |
| 20260904042148 | 73 | 257 | 0.0 | 0.0 | 0.00 | 0.00 | 0.00 | 38 | 1013.0 |
| 20260904041147 | 74 | 257 | 0.0 | 0.0 | 0.00 | 0.00 | 0.00 | 36 | 1012.9 |
| 20260904040648 | 74 | 257 | 0.0 | 0.0 | 0.00 | 0.00 | 0.00 | 36 | 1012.7 |
| 20260904040147 | 74 | 257 | 0.0 | 0.0 | 0.00 | 0.00 | 0.00 | 35 | 1012.7 |
| 20260904035647 | 75 | 258 | 0.0 | 0.0 | 0.00 | 0.00 | 0.00 | 34 | 1012.9 |
| 20260904035148 | 75 | 299 | 0.0 | 0.0 | 0.00 | 0.00 | 0.00 | 32 | 1012.7 |
| 20260904034647 | 76 | 307 | 0.0 | 0.0 | 0.00 | 0.00 | 0.00 | 32 | 1012.6 |
| 20260904034147 | 76 | 307 | 0.0 | 0.0 | 0.00 | 0.00 | 0.00 | 31 | 1012.5 |
| 20260904033145 | 77 | 307 | 0.0 | 0.0 | 0.00 | 0.00 | 0.00 | 30 | 1012.3 |
| 20260904032645 | 77 | 307 | 0.0 | 0.0 | 0.00 | 0.00 | 0.00 | 30 | 1012.3 |
| 20260904032145 | 77 | 307 | 0.0 | 0.0 | 0.00 | 0.00 | 0.00 | 30 | 1012.3 |
| 20260904031641 | 77 | 37 | 0.0 | 0.0 | 0.00 | 0.00 | 0.00 | 30 | 1012.3 |
| 20260904031143 | 78 | 246 | 0.0 | 0.0 | 0.00 | 0.02 | 0.00 | 30 | 1012.2 |
| 20260904030637 | 78 | 247 | 0.0 | 0.0 | 0.00 | 0.02 | 0.00 | 29 | 1012.2 |
| 20260904030132 | 78 | 114 | 0.0 | 0.0 | 0.00 | 0.02 | 0.00 | 29 | 1011.9 |
| 20260904025626 | 77 | 136 | 0.0 | 0.0 | 0.00 | 0.02 | 0.00 | 29 | 1011.8 |
| 20260904025120 | 77 | 120 | 0.0 | 0.0 | 0.00 | 0.02 | 0.00 | 30 | 1011.8 |
| 20260904024614 | 77 | 119 | 0.0 | 0.0 | 0.00 | 0.02 | 0.00 | 30 | 1011.8 |
| 20260904024108 | 78 | 62 | 0.0 | 0.0 | 0.00 | 0.02 | 0.00 | 30 | 1011.8 |
| 20260904023602 | 78 | 61 | 0.0 | 0.0 | 0.00 | 0.02 | 0.00 | 30 | 1011.9 |
| 20260904023055 | 78 | 61 | 0.0 | 0.0 | 0.00 | 0.02 | 0.00 | 30 | 1011.8 |
| 20260904022550 | 79 | 61 | 0.0 | 0.0 | 0.00 | 0.02 | 0.00 | 29 | 1011.8 |
| 20260904022043 | 79 | 61 | 0.0 | 0.0 | 0.00 | 0.02 | 0.00 | 29 | 1011.7 |
| 20260904021537 | 80 | 61 | 0.0 | 0.0 | 0.00 | 0.02 | 0.00 | 29 | 1011.7 |
| 20260904021031 | 80 | 61 | 0.0 | 0.0 | 0.00 | 0.02 | 0.00 | 28 | 1011.7 |
| 20260904020525 | 81 | 61 | 0.0 | 0.0 | 0.00 | 0.02 | 0.00 | 27 | 1011.7 |
| 20260904020020 | 81 | 57 | 0.0 | 0.0 | 0.00 | 0.02 | 0.00 | 27 | 1011.6 |
| 20260904015514 | 82 | 57 | 0.0 | 0.0 | 0.00 | 0.02 | 0.00 | 26 | 1011.6 |
| 20260904013955 | 84 | 56 | 0.0 | 3.0 | 0.00 | 0.02 | 0.00 | 25 | 1011.5 |
| 20260904013449 | 84 | 55 | 0.0 | 4.0 | 0.00 | 0.02 | 0.00 | 25 | 1011.5 |
| 20260904012943 | 85 | 54 | 1.0 | 4.0 | 0.00 | 0.02 | 0.00 | 24 | 1011.5 |
| 20260904012437 | 85 | 64 | 0.0 | 3.0 | 0.00 | 0.02 | 0.00 | 24 | 1011.6 |
| 20260904011425 | 86 | 338 | 0.0 | 1.0 | 0.00 | 0.02 | 0.00 | 23 | 1011.6 |
| 20260904010921 | 86 | 312 | 0.0 | 1.0 | 0.00 | 0.02 | 0.00 | 22 | 1011.7 |
| 20260904005909 | 87 | 67 | 0.0 | 0.0 | 0.00 | 0.02 | 0.00 | 22 | 1011.7 |
| 20260904005403 | 87 | 57 | 0.0 | 0.0 | 0.00 | 0.02 | 0.00 | 22 | 1011.7 |
| 20260904004350 | 87 | 80 | 0.0 | 0.0 | 0.00 | 0.02 | 0.00 | 23 | 1011.7 |
| 20260904003843 | 88 | 80 | 0.0 | 0.0 | 0.00 | 0.02 | 0.00 | 23 | 1011.8 |
| 20260904003338 | 88 | 81 | 0.0 | 0.0 | 0.00 | 0.02 | 0.00 | 24 | 1011.8 |
| 20260904002832 | 88 | 130 | 0.0 | 2.0 | 0.00 | 0.02 | 0.00 | 23 | 1011.8 |
| 20260904002325 | 88 | 227 | 0.0 | 2.0 | 0.00 | 0.02 | 0.00 | 22 | 1011.8 |
| 20260904001820 | 89 | 46 | 0.0 | 1.0 | 0.00 | 0.02 | 0.00 | 23 | 1011.7 |
| 20260904001315 | 89 | 326 | 0.0 | 0.0 | 0.00 | 0.02 | 0.00 | 23 | 1011.8 |
| 20260904000303 | 89 | 155 | 0.0 | 3.0 | 0.00 | 0.02 | 0.00 | 22 | 1011.7 |
| 20260903235755 | 89 | 74 | 0.0 | 0.0 | 0.00 | 0.02 | 0.00 | 24 | 1011.8 |
| 20260903235249 | 89 | 69 | 0.0 | 0.0 | 0.00 | 0.02 | 0.00 | 23 | 1011.8 |
| 20260903234743 | 90 | 304 | 0.0 | 0.0 | 0.00 | 0.02 | 0.00 | 22 | 1011.9 |
| 20260903234237 | 89 | 58 | 1.0 | 4.0 | 0.00 | 0.02 | 0.00 | 23 | 1011.9 |
| 20260903233731 | 89 | 227 | 1.0 | 4.0 | 0.00 | 0.02 | 0.00 | 22 | 1011.9 |
| 20260903233225 | 90 | 172 | 0.0 | 0.0 | 0.00 | 0.02 | 0.00 | 24 | 1011.9 |
| 20260903232720 | 90 | 273 | 0.0 | 0.0 | 0.00 | 0.02 | 0.00 | 23 | 1011.9 |
| 20260903232215 | 90 | 101 | 0.0 | 0.0 | 0.00 | 0.02 | 0.00 | 24 | 1011.9 |
| 20260903231201 | 90 | 77 | 0.0 | 0.0 | 0.00 | 0.02 | 0.00 | 24 | 1011.9 |
| 20260903230655 | 91 | 151 | 0.0 | 0.0 | 0.00 | 0.02 | 0.00 | 22 | 1011.9 |
| 20260903230150 | 91 | 155 | 0.0 | 5.0 | 0.00 | 0.02 | 0.00 | 22 | 1012.0 |
| 20260903225644 | 92 | 183 | 0.0 | 5.0 | 0.00 | 0.02 | 0.00 | 22 | 1012.0 |
| 20260903225137 | 92 | 149 | 1.0 | 6.0 | 0.00 | 0.02 | 0.00 | 22 | 1012.0 |
| 20260903224126 | 92 | 355 | 0.0 | 0.0 | 0.00 | 0.02 | 0.00 | 25 | 1011.9 |
| 20260903223619 | 91 | 333 | 0.0 | 4.0 | 0.00 | 0.02 | 0.00 | 24 | 1012.0 |
| 20260903223113 | 92 | 210 | 0.0 | 4.0 | 0.00 | 0.02 | 0.00 | 23 | 1011.9 |
| 20260903222607 | 92 | 125 | 1.0 | 6.0 | 0.00 | 0.02 | 0.00 | 22 | 1011.9 |
| 20260903222101 | 92 | 134 | 0.0 | 6.0 | 0.00 | 0.02 | 0.00 | 20 | 1012.2 |
| 20260903221556 | 92 | 128 | 0.0 | 0.0 | 0.00 | 0.02 | 0.00 | 23 | 1012.0 |
| 20260903215551 | 91 | 121 | 0.0 | 2.0 | 0.00 | 0.02 | 0.00 | 23 | 1012.3 |
| 20260903215053 | 90 | 85 | 0.0 | 0.0 | 0.00 | 0.02 | 0.00 | 23 | 1012.4 |
| 20260903214549 | 91 | 169 | 0.0 | 0.0 | 0.00 | 0.02 | 0.00 | 23 | 1012.5 |
| 20260903214047 | 90 | 170 | 0.0 | 0.0 | 0.00 | 0.02 | 0.00 | 19 | 1012.6 |
| 20260903213547 | 90 | 138 | 0.0 | 0.0 | 0.00 | 0.02 | 0.00 | 22 | 1012.6 |
| 20260903213045 | 90 | 137 | 0.0 | 0.0 | 0.00 | 0.02 | 0.00 | 23 | 1012.7 |
| 20260903212544 | 91 | 137 | 0.0 | 0.0 | 0.00 | 0.02 | 0.00 | 22 | 1012.9 |
| 20260903212047 | 90 | 134 | 0.0 | 0.0 | 0.00 | 0.02 | 0.00 | 26 | 1012.9 |
| 20260903211044 | 90 | 292 | 0.0 | 0.0 | 0.00 | 0.02 | 0.00 | 22 | 1013.0 |
| 20260903210540 | 90 | 111 | 0.0 | 0.0 | 0.00 | 0.02 | 0.00 | 21 | 1013.1 |
| 20260903210039 | 91 | 113 | 0.0 | 0.0 | 0.00 | 0.02 | 0.00 | 24 | 1013.2 |
| 20260903205039 | 89 | 105 | 0.0 | 0.0 | 0.00 | 0.02 | 0.00 | 24 | 1013.2 |
| 20260903204538 | 89 | 67 | 0.0 | 0.0 | 0.00 | 0.02 | 0.00 | 25 | 1013.3 |
| 20260903203533 | 88 | 22 | 0.0 | 0.0 | 0.00 | 0.02 | 0.00 | 22 | 1013.4 |
| 20260903203032 | 88 | 78 | 0.0 | 0.0 | 0.00 | 0.02 | 0.00 | 26 | 1013.7 |
| 20260903201532 | 88 | 78 | 0.0 | 0.0 | 0.00 | 0.02 | 0.00 | 27 | 1013.8 |
| 20260903201033 | 88 | 80 | 0.0 | 0.0 | 0.00 | 0.02 | 0.00 | 28 | 1013.8 |
| 20260903200533 | 87 | 80 | 0.0 | 0.0 | 0.00 | 0.02 | 0.00 | 29 | 1013.8 |